Theta_e
300 301 301 301 301 301 302 302 303 302 302 302 303 306 309 307 307 308 308 305 306 307 308 309 309 308 309 315 317 321 329 331 329 328 324 309 312 302 302 303 302 302 301 299 299
300 300 300 300 300 300 301 301 301 301 301 301 301 303 308 309 308 308 305 307 307 308 308 309 310 309 311 314 317 323 330 329 316 316 318 312 314 309 310 304 301 299 300 300 299
299 299 299 299 299 300 300 301 301 301 301 301 300 302 307 309 306 304 302 302 303 305 306 309 309 309 310 312 312 316 325 316 312 311 309 308 307 307 315 313 310 304 301 299 297
298 298 299 299 299 300 300 300 301 301 301 300 300 301 305 307 310 300 300 300 301 302 304 307 309 311 312 311 308 313 307 308 305 305 309 308 306 305 307 304 301 301 300 300 296
298 298 299 299 299 300 300 300 300 300 300 300 300 302 305 305 300 300 300 300 300 301 304 306 309 312 312 308 308 309 306 304 303 303 305 305 306 306 301 299 298 297 297 297 297
298 298 298 299 299 299 299 299 300 300 300 300 299 302 305 305 299 299 299 299 300 301 303 305 308 308 308 306 308 304 304 303 303 303 302 305 305 303 303 297 297 297 297 297 299
297 298 298 299 299 298 299 299 299 299 299 299 301 303 302 300 298 298 298 299 299 300 302 305 305 307 306 305 302 303 305 304 302 302 303 301 305 304 302 299 299 298 297 295 294
297 297 298 298 298 298 298 298 298 298 299 300 302 302 298 297 297 297 297 298 299 300 302 304 304 303 304 302 304 306 307 309 302 301 300 302 309 304 300 299 299 298 297 295 294
296 297 297 298 298 297 298 298 299 300 300 301 301 300 297 296 296 297 297 298 300 301 303 303 303 303 303 307 307 307 307 308 304 298 300 302 308 302 300 299 300 299 298 296 295
296 296 297 298 297 297 298 298 298 299 299 299 298 298 295 295 296 296 297 298 300 301 302 303 304 305 305 306 306 306 306 305 305 300 300 302 303 304 300 300 300 301 299 298 296
296 296 297 297 297 296 296 296 297 298 296 294 294 294 294 295 295 295 296 298 299 301 304 301 305 305 303 300 301 303 304 303 303 297 298 302 302 303 302 299 300 301 300 299 297
296 295 296 297 297 296 296 297 298 297 294 292 293 293 293 294 295 295 296 298 300 301 299 302 303 296 296 298 301 302 302 303 301 297 297 300 300 301 302 301 300 300 301 299 298
296 295 295 297 297 296 296 297 297 296 299 293 292 293 293 294 294 294 294 295 299 299 300 302 296 293 296 298 299 299 300 300 299 298 298 298 303 304 301 300 301 300 300 300 298
295 295 295 296 296 297 296 297 296 296 309 298 295 293 292 293 294 293 293 294 296 297 297 296 292 294 296 296 296 299 295 296 297 299 302 298 301 304 305 301 299 299 299 299 298
295 295 295 295 297 296 297 296 296 296 308 296 294 292 292 294 293 293 293 294 297 294 296 294 294 294 296 294 294 296 294 296 297 299 298 300 300 304 302 303 303 301 299 299 299
295 295 295 296 297 296 296 296 296 310 309 295 293 294 294 293 293 292 293 293 293 295 294 292 290 292 293 292 293 294 296 297 297 299 304 299 299 303 304 302 302 301 299 298 298
295 294 294 295 296 296 295 296 307 308 294 299 296 294 295 294 293 294 295 295 299 302 298 293 292 291 291 294 294 295 298 305 306 307 307 297 297 303 303 301 299 299 298 297 297
294 294 294 295 296 295 296 305 304 304 300 292 293 293 296 293 293 293 295 297 294 296 299 300 299 292 290 293 297 296 299 306 305 303 302 296 299 305 300 298 297 296 296 295 296
294 293 293 294 295 294 298 311 315 306 297 294 293 296 297 292 294 294 295 298 299 295 307 301 295 290 289 290 293 296 297 296 301 293 298 301 302 303 299 300 299 297 296 296 295
293 293 293 294 294 293 300 306 302 294 294 295 303 298 304 296 295 294 296 297 295 292 292 297 297 290 289 290 291 293 294 297 299 303 303 302 302 302 302 300 300 298 298 296 295
293 295 293 294 293 296 306 308 295 292 292 295 298 296 299 297 298 299 302 292 293 291 292 297 301 291 289 291 295 291 295 294 297 299 302 301 303 307 301 299 299 297 297 296 295
292 301 293 294 299 295 303 296 291 292 291 292 294 295 297 295 297 299 301 295 292 291 293 295 303 296 296 289 289 290 296 297 300 300 296 297 300 299 299 298 297 296 295 295 294
294 294 293 293 303 300 291 291 292 291 292 292 294 294 293 294 300 295 293 289 289 292 294 294 301 300 297 292 289 290 292 294 294 295 299 300 300 296 296 296 296 295 294 294 293
292 299 292 293 293 301 296 296 294 290 291 291 292 292 293 293 291 293 292 290 288 290 290 292 297 302 306 302 296 292 292 292 296 298 297 298 299 299 299 299 298 296 295 294 293
291 299 296 298 297 296 296 296 294 292 289 290 290 293 297 293 292 293 293 289 288 290 289 292 296 289 292 292 292 294 291 291 293 296 299 299 299 300 300 297 295 294 293 292 292
293 293 289 290 291 296 296 295 295 293 291 292 292 294 293 295 298 295 293 292 293 289 290 285 295 286 291 290 290 290 291 290 292 293 294 296 296 297 296 295 294 293 292 292 291
291 291 293 292 293 297 298 298 295 294 291 292 292 293 292 292 290 291 290 292 292 291 291 288 289 292 297 289 290 293 289 290 291 293 294 295 297 297 296 293 292 291 291 291 290
Wind_Speed
11 12 12 13 13 13 13 13 13 13 12 10 8 7 6 5 3 2 3 5 5 4 4 2 2 2 2 3 1 3 8 11 9 9 1 12 6 3 4 7 5 2 3 6 7
10 12 11 13 13 13 13 13 13 13 13 11 10 8 6 4 2 2 5 6 5 3 2 0 0 1 4 2 1 5 9 7 6 8 3 7 8 12 7 1 4 3 4 3 7
7 9 10 11 11 11 12 13 13 13 13 12 12 10 7 5 1 3 5 5 4 3 2 1 3 1 4 1 2 2 4 4 7 7 3 3 3 3 7 5 6 9 9 6 6
6 7 7 8 9 10 10 12 12 12 12 12 13 11 8 7 2 2 2 3 2 1 2 3 2 4 3 4 1 3 5 5 3 4 1 3 2 1 5 5 3 7 12 10 7
4 6 6 6 7 8 8 8 9 9 11 13 13 11 9 4 2 3 3 2 1 2 2 1 3 3 3 3 3 3 4 5 4 5 5 2 1 3 5 4 8 10 12 12 11
4 5 5 4 5 5 5 5 5 6 8 12 13 12 8 9 6 5 3 2 2 3 2 2 1 3 6 3 3 4 7 5 3 4 3 2 3 3 6 10 9 11 11 10 10
4 4 3 3 2 1 2 2 3 6 9 12 12 12 4 6 2 1 1 1 3 5 4 5 7 1 5 6 6 7 4 4 3 2 2 4 6 6 8 12 10 10 10 10 10
4 3 3 2 2 3 4 4 5 8 11 12 12 9 3 7 2 1 3 4 5 5 7 7 8 7 4 11 5 3 3 4 4 2 1 1 7 7 8 12 12 13 13 12 11
3 3 3 4 4 5 6 8 9 11 11 10 10 6 2 4 2 3 5 7 8 7 9 8 5 5 5 5 4 4 6 5 3 2 2 4 7 5 10 13 15 16 16 14 13
4 4 4 5 5 6 8 9 10 8 10 7 6 3 3 2 3 5 7 8 6 9 7 3 2 3 3 5 2 1 4 2 5 4 3 7 16 10 13 16 20 19 19 20 18
6 5 5 6 8 8 10 9 6 1 2 4 1 3 6 6 4 4 7 9 7 3 4 2 5 2 6 3 3 3 3 5 1 4 5 9 15 15 13 19 21 22 22 21 19
7 6 6 8 9 10 11 4 5 5 8 6 7 6 6 5 2 3 6 1 4 4 4 4 3 3 1 0 1 1 2 4 2 1 3 10 19 22 19 24 23 24 23 21 19
8 8 7 9 10 11 12 7 6 9 1 2 3 3 2 4 2 2 4 2 4 4 1 1 6 3 1 3 3 1 3 2 4 7 5 11 9 2 1 11 19 18 20 20 22
9 8 8 10 8 10 10 7 9 3 0 4 3 0 0 6 2 3 4 3 3 6 6 7 3 2 4 3 2 2 2 1 3 5 4 4 7 11 3 4 7 14 17 21 22
9 9 9 13 5 12 7 10 8 3 2 3 3 3 3 0 4 2 4 3 4 5 3 3 3 3 3 3 4 4 1 1 2 4 4 6 4 4 3 4 9 3 9 15 21
9 9 10 13 7 9 9 12 9 2 7 3 1 3 4 2 2 1 1 6 7 4 11 5 2 3 3 3 2 6 2 2 2 3 3 3 3 2 2 4 6 5 5 8 15
10 10 11 11 8 11 14 13 2 4 2 4 3 4 2 3 3 2 4 5 3 5 4 4 3 3 1 4 3 3 4 2 2 2 3 3 4 7 10 6 5 10 8 5 9
10 10 11 11 9 15 16 2 4 1 5 1 4 5 3 3 2 2 5 4 4 2 4 7 3 4 1 3 2 5 2 3 4 3 3 2 6 2 3 4 7 7 5 5 5
11 10 11 12 14 19 5 2 3 3 6 11 5 4 4 2 1 5 7 3 2 7 4 4 3 3 3 1 2 4 4 3 2 2 2 6 5 4 6 4 4 6 3 3 3
11 8 9 13 17 17 2 5 2 1 4 5 6 5 7 6 6 7 9 3 5 3 2 4 4 1 2 1 2 3 1 3 2 2 5 5 5 8 6 3 5 9 9 6 2
12 4 9 15 18 6 3 4 3 4 3 6 5 5 2 6 6 4 5 2 2 6 2 1 1 3 1 7 7 4 4 3 1 2 3 5 4 2 5 2 3 5 6 6 4
9 2 13 22 6 2 3 3 4 5 3 2 0 2 6 8 6 5 7 2 6 10 6 4 2 4 3 2 3 2 4 7 4 6 2 3 8 5 4 2 4 2 5 4 8
8 5 15 24 5 4 2 2 3 5 5 5 5 1 1 6 3 3 4 2 6 5 4 6 4 3 2 2 0 5 8 6 1 1 7 5 6 2 4 4 4 5 6 6 12
9 4 5 12 6 2 6 5 5 4 3 3 3 3 4 3 1 5 4 3 5 3 1 4 2 3 3 4 5 5 8 15 7 4 7 14 22 8 9 8 8 4 8 16 9
10 5 9 6 8 6 5 8 7 7 4 7 2 7 6 4 3 5 4 5 4 6 2 3 4 0 3 3 3 2 5 13 14 16 10 18 20 11 6 2 9 15 12 14 12
9 7 7 2 4 14 9 10 12 7 11 6 6 12 9 5 5 9 9 8 5 6 5 0 3 3 3 3 6 5 9 11 19 16 21 23 24 18 19 15 9 9 12 12 10
25 12 6 8 6 7 7 10 15 13 12 4 13 7 12 8 7 9 6 7 11 9 9 7 6 4 3 2 3 9 18 20 14 10 19 15 22 10 5 4 6 11 11 11 10
Wind_Direction
263 264 264 267 266 265 261 259 257 256 251 249 242 243 241 234 234 247 262 281 281 279 285 308 356 278 190 229 270 246 248 250 247 244 198 155 153 145 118 124 112 107 99 165 190
263 269 264 266 269 268 266 261 258 251 248 238 234 229 231 213 167 229 291 276 267 271 283 216 316 311 198 207 250 247 239 292 20 24 75 168 202 162 157 134 124 127 189 167 175
254 266 262 267 263 263 268 266 256 247 239 231 220 214 206 190 173 286 299 277 264 253 230 185 158 198 203 218 356 11 293 20 35 43 42 143 169 194 203 184 195 203 202 184 186
266 260 261 262 269 268 269 266 254 241 233 223 212 202 188 171 258 293 318 300 272 239 189 155 213 210 209 191 77 205 50 18 19 24 95 157 118 213 281 42 174 166 177 180 166
268 266 259 257 262 266 268 265 254 236 222 206 201 187 170 183 235 283 297 335 56 139 167 165 189 196 190 126 103 93 112 71 79 69 73 137 180 263 185 177 138 155 167 175 189
259 266 270 271 260 257 256 252 239 227 204 193 185 179 178 220 274 279 273 251 198 150 136 97 123 111 115 74 345 121 113 110 79 75 75 261 226 222 178 179 174 176 182 199 218
248 255 271 278 273 240 213 196 181 180 180 173 171 168 173 197 229 227 190 157 176 173 133 144 133 130 127 116 114 135 107 145 67 35 57 331 231 228 160 179 186 193 194 193 202
247 253 245 226 172 124 113 108 125 146 156 158 159 153 159 194 178 194 159 118 125 149 155 152 123 105 77 118 123 207 227 234 85 350 57 303 271 120 170 187 202 202 203 204 205
248 245 227 190 161 128 115 106 114 131 141 151 156 142 121 155 134 119 141 131 119 125 128 128 113 94 129 194 181 204 268 233 153 45 306 233 288 153 188 206 219 216 215 215 212
246 234 209 185 163 147 132 123 116 120 128 137 148 148 153 206 124 111 125 131 115 121 106 98 119 156 171 209 263 158 242 212 283 67 247 248 262 254 203 217 227 223 221 219 216
239 228 211 189 177 166 155 132 112 94 160 106 215 88 129 130 117 102 126 115 123 124 164 121 207 149 59 27 8 13 319 303 87 47 300 268 277 275 230 225 235 232 227 224 222
226 223 214 195 188 188 184 201 218 160 104 87 98 101 138 147 118 69 143 180 189 143 148 172 149 99 127 78 128 184 273 288 146 51 274 299 286 274 257 244 235 237 233 229 222
222 217 209 199 195 202 208 221 174 144 107 98 122 124 155 136 87 352 109 119 116 115 146 149 99 126 199 131 149 16 295 329 305 314 238 294 269 202 151 257 241 241 243 236 227
218 218 209 194 200 207 207 197 171 154 88 161 178 210 70 135 81 73 101 120 86 120 82 71 97 144 157 113 312 217 35 290 291 307 324 346 291 312 342 266 244 250 235 233 227
216 212 206 191 201 187 195 175 167 126 270 94 135 185 104 230 119 44 74 42 87 105 223 107 125 133 161 47 332 57 121 346 305 281 312 172 259 106 54 29 39 13 251 243 230
214 209 201 198 202 195 175 156 140 72 244 145 154 155 154 86 67 108 103 84 111 85 53 86 67 14 73 97 44 135 148 186 241 287 255 79 273 296 106 29 344 327 325 273 234
212 205 202 202 205 181 163 145 85 216 38 176 175 183 169 131 118 209 168 149 165 128 160 140 79 98 175 127 155 230 210 197 222 214 268 104 256 274 316 5 317 305 312 309 233
210 204 202 200 187 169 159 156 219 105 199 141 130 124 198 162 149 164 159 188 213 217 148 175 197 172 75 333 323 195 290 258 239 234 355 154 238 228 114 315 336 301 294 301 242
202 199 204 195 177 169 168 189 238 178 145 159 130 174 187 189 214 190 211 219 123 195 208 145 124 125 58 340 330 152 220 35 62 90 268 241 222 234 135 120 21 15 17 347 269
185 186 205 187 175 171 103 259 210 128 129 184 183 203 181 183 185 198 181 148 163 177 23 158 112 320 102 196 129 289 18 162 177 246 260 246 262 253 187 108 67 49 32 18 317
177 191 196 174 165 179 210 229 194 187 178 196 192 147 199 174 203 202 181 151 174 146 87 113 266 128 245 206 183 167 211 213 320 211 247 284 260 55 147 152 111 56 32 22 7
183 205 181 165 147 201 206 190 173 168 182 190 178 119 180 163 175 222 208 94 157 159 169 177 44 158 168 86 355 347 281 208 217 176 210 305 271 191 181 224 190 143 20 41 9
184 163 177 177 197 206 122 176 210 157 195 182 188 215 153 173 202 175 158 77 151 161 160 183 193 141 192 184 289 218 191 236 353 47 202 243 252 162 170 216 211 252 321 330 316
179 156 166 204 237 211 160 187 190 207 180 154 140 122 140 155 143 169 153 146 170 172 113 170 181 244 257 78 110 194 204 205 194 206 238 223 262 210 244 253 259 285 295 315 321
206 216 182 183 224 193 194 158 157 185 224 188 189 225 171 143 138 193 144 137 173 180 143 210 214 118 279 234 192 176 178 196 206 217 221 258 254 253 269 307 294 305 315 310 311
199 177 180 158 156 181 193 201 182 161 162 215 221 195 188 165 193 184 153 182 184 170 181 114 165 142 257 193 222 238 227 212 216 232 250 257 273 278 299 286 278 304 307 303 311
215 210 184 160 166 179 198 191 203 154 203 189 204 151 197 206 110 91 112 129 142 155 171 164 151 162 246 22 310 267 206 207 213 212 222 238 246 266 239 273 323 315 314 312 312